Tracking 35280 objects as of 7-Sep-2026
HD Live streaming from Space Station
objects crossing your sky now

ION SCV-002

Track ION SCV-002 now!
10-day predictions
ION SCV-002 is classified as:


NORAD ID: 47504
Int'l Code: 2021-006CV
Launch date: January 24, 2021
Source: Italy (IT)
Launch site: AIR FORCE EASTERN TEST RANGE (AFETR)

Uplink (MHz):
Downlink (MHz): 437.515
Beacon (MHz):
Mode: 1k2 FSK
Call sign:
Status: Unknown

Your satellite tracking list
Your tracking list is empty




NASA's NSSDC Master Catalog

Two Line Element Set (TLE):
1 47504U 21006CV  26249.52049917  .00008234  00000-0  17145-3 0  9997
2 47504  97.1174 249.7936 0010889 167.5953 192.5567 15.45792414312589
Source of the keplerian elements: AFSPC